Year,Month,Day,Hour,Minute,Value (Times are PST for temperature in C)
2020,12,06,00,00,10.00
2020,12,06,00,01,10.00
2020,12,06,00,02,10.00
2020,12,06,00,03,10.00
2020,12,06,00,04,10.00
2020,12,06,00,05,10.00
2020,12,06,00,06,9.90
2020,12,06,00,07,9.90
2020,12,06,00,08,9.80
2020,12,06,00,09,9.70
2020,12,06,00,10,9.70
2020,12,06,00,11,9.60
2020,12,06,00,12,9.60
2020,12,06,00,13,9.50
2020,12,06,00,14,9.50
2020,12,06,00,15,9.40
2020,12,06,00,16,9.40
2020,12,06,00,17,9.30
2020,12,06,00,18,9.30
2020,12,06,00,19,9.30
2020,12,06,00,20,9.40
2020,12,06,00,21,9.40
2020,12,06,00,22,9.40
2020,12,06,00,23,9.40
2020,12,06,00,24,9.30
2020,12,06,00,25,9.30
2020,12,06,00,26,9.30
2020,12,06,00,27,9.30
2020,12,06,00,28,9.30
2020,12,06,00,29,9.30
2020,12,06,00,30,9.30
2020,12,06,00,31,9.30
2020,12,06,00,32,9.30
2020,12,06,00,33,9.30
2020,12,06,00,34,9.40
2020,12,06,00,35,9.40
2020,12,06,00,36,9.40
2020,12,06,00,37,9.40
2020,12,06,00,38,9.50
2020,12,06,00,39,9.50
2020,12,06,00,40,9.50
2020,12,06,00,41,9.50
2020,12,06,00,42,9.60
2020,12,06,00,43,9.60
2020,12,06,00,44,9.60
2020,12,06,00,45,9.60
2020,12,06,00,46,9.60
2020,12,06,00,47,9.60
2020,12,06,00,48,9.60
2020,12,06,00,49,9.70
2020,12,06,00,50,9.60
2020,12,06,00,51,9.60
2020,12,06,00,52,9.60
2020,12,06,00,53,9.50
2020,12,06,00,54,9.50
2020,12,06,00,55,9.40
2020,12,06,00,56,9.30
2020,12,06,00,57,9.30
2020,12,06,00,58,9.30
2020,12,06,00,59,9.30
2020,12,06,01,00,9.30
2020,12,06,01,01,9.30
2020,12,06,01,02,9.30
2020,12,06,01,03,9.30
2020,12,06,01,04,9.40
2020,12,06,01,05,9.40
2020,12,06,01,06,9.50
2020,12,06,01,07,9.50
2020,12,06,01,08,9.60
2020,12,06,01,09,9.50
2020,12,06,01,10,9.50
2020,12,06,01,11,9.40
2020,12,06,01,12,9.30
2020,12,06,01,13,9.30
2020,12,06,01,14,9.20
2020,12,06,01,15,9.10
2020,12,06,01,16,9.10
2020,12,06,01,17,9.00
2020,12,06,01,18,8.90
2020,12,06,01,19,8.90
2020,12,06,01,20,8.80
2020,12,06,01,21,8.80
2020,12,06,01,22,8.80
2020,12,06,01,23,8.80
2020,12,06,01,24,8.70
2020,12,06,01,25,8.70
2020,12,06,01,26,8.70
2020,12,06,01,27,8.70
2020,12,06,01,28,8.70
2020,12,06,01,29,8.70
2020,12,06,01,30,8.70
2020,12,06,01,31,8.70
2020,12,06,01,32,8.60
2020,12,06,01,33,8.60
2020,12,06,01,34,8.60
2020,12,06,01,35,8.60
2020,12,06,01,36,8.60
2020,12,06,01,37,8.60
2020,12,06,01,38,8.60
2020,12,06,01,39,8.60
2020,12,06,01,40,8.60
2020,12,06,01,41,8.60
2020,12,06,01,42,8.60
2020,12,06,01,43,8.60
2020,12,06,01,44,8.60
2020,12,06,01,45,8.60
2020,12,06,01,46,8.60
2020,12,06,01,47,8.60
2020,12,06,01,48,8.60
2020,12,06,01,49,8.60
2020,12,06,01,50,8.60
2020,12,06,01,51,8.70
2020,12,06,01,52,8.70
2020,12,06,01,53,8.70
2020,12,06,01,54,8.80
2020,12,06,01,55,8.80
2020,12,06,01,56,8.80
2020,12,06,01,57,8.90
2020,12,06,01,58,8.90
2020,12,06,01,59,8.90
2020,12,06,02,00,9.00
2020,12,06,02,01,9.00
2020,12,06,02,02,9.00
2020,12,06,02,03,9.10
2020,12,06,02,04,9.10
2020,12,06,02,05,9.10
2020,12,06,02,06,9.10
2020,12,06,02,07,9.10
2020,12,06,02,08,9.10
2020,12,06,02,09,9.10
2020,12,06,02,10,9.10
2020,12,06,02,11,9.10
2020,12,06,02,12,9.10
2020,12,06,02,13,9.00
2020,12,06,02,14,9.00
2020,12,06,02,15,8.90
2020,12,06,02,16,8.90
2020,12,06,02,17,8.90
2020,12,06,02,18,8.90
2020,12,06,02,19,8.90
2020,12,06,02,20,8.90
2020,12,06,02,21,8.90
2020,12,06,02,22,8.90
2020,12,06,02,23,8.90
2020,12,06,02,24,9.00
2020,12,06,02,25,9.00
2020,12,06,02,26,9.00
2020,12,06,02,27,9.00
2020,12,06,02,28,9.00
2020,12,06,02,29,9.00
2020,12,06,02,30,8.90
2020,12,06,02,31,8.90
2020,12,06,02,32,8.80
2020,12,06,02,33,8.80
2020,12,06,02,34,8.80
2020,12,06,02,35,8.70
2020,12,06,02,36,8.60
2020,12,06,02,37,8.60
2020,12,06,02,38,8.60
2020,12,06,02,39,8.60
2020,12,06,02,40,8.60
2020,12,06,02,41,8.60
2020,12,06,02,42,8.60
2020,12,06,02,43,8.60
2020,12,06,02,44,8.60
2020,12,06,02,45,8.60
2020,12,06,02,46,8.60
2020,12,06,02,47,8.60
2020,12,06,02,48,8.60
2020,12,06,02,49,8.60
2020,12,06,02,50,8.60
2020,12,06,02,51,8.60
2020,12,06,02,52,8.60
2020,12,06,02,53,8.60
2020,12,06,02,54,8.60
2020,12,06,02,55,8.60
2020,12,06,02,56,8.60
2020,12,06,02,57,8.60
2020,12,06,02,58,8.60
2020,12,06,02,59,8.60
2020,12,06,03,00,8.60
2020,12,06,03,01,8.50
2020,12,06,03,02,8.50
2020,12,06,03,03,8.50
2020,12,06,03,04,8.40
2020,12,06,03,05,8.40
2020,12,06,03,06,8.40
2020,12,06,03,07,8.40
2020,12,06,03,08,8.40
2020,12,06,03,09,8.40
2020,12,06,03,10,8.40
2020,12,06,03,11,8.40
2020,12,06,03,12,8.40
2020,12,06,03,13,8.30
2020,12,06,03,14,8.30
2020,12,06,03,15,8.30
2020,12,06,03,16,8.30
2020,12,06,03,17,8.30
2020,12,06,03,18,8.30
2020,12,06,03,19,8.30
2020,12,06,03,20,8.30
2020,12,06,03,21,8.30
2020,12,06,03,22,8.30
2020,12,06,03,23,8.30
2020,12,06,03,24,8.30
2020,12,06,03,25,8.30
2020,12,06,03,26,8.30
2020,12,06,03,27,8.30
2020,12,06,03,28,8.30
2020,12,06,03,29,8.30
2020,12,06,03,30,8.30
2020,12,06,03,31,8.30
2020,12,06,03,32,8.30
2020,12,06,03,33,8.30
2020,12,06,03,34,8.30
2020,12,06,03,35,8.30
2020,12,06,03,36,8.30
2020,12,06,03,37,8.30
2020,12,06,03,38,8.30
2020,12,06,03,39,8.30
2020,12,06,03,40,8.30
2020,12,06,03,41,8.30
2020,12,06,03,42,8.30
2020,12,06,03,43,8.30
2020,12,06,03,44,8.30
2020,12,06,03,45,8.30
2020,12,06,03,46,8.30
2020,12,06,03,47,8.30
2020,12,06,03,48,8.30
2020,12,06,03,49,8.30
2020,12,06,03,50,8.30
2020,12,06,03,51,8.30
2020,12,06,03,52,8.30
2020,12,06,03,53,8.20
2020,12,06,03,54,8.20
2020,12,06,03,55,8.20
2020,12,06,03,56,8.20
2020,12,06,03,57,8.20
2020,12,06,03,58,8.20
2020,12,06,03,59,8.20
2020,12,06,04,00,8.20
2020,12,06,04,01,8.20
2020,12,06,04,02,8.20
2020,12,06,04,03,8.20
2020,12,06,04,04,8.20
2020,12,06,04,05,8.20
2020,12,06,04,06,8.20
2020,12,06,04,07,8.20
2020,12,06,04,08,8.20
2020,12,06,04,09,8.30
2020,12,06,04,10,8.30
2020,12,06,04,11,8.30
2020,12,06,04,12,8.20
2020,12,06,04,13,8.20
2020,12,06,04,14,8.20
2020,12,06,04,15,8.10
2020,12,06,04,16,8.10
2020,12,06,04,17,8.00
2020,12,06,04,18,8.00
2020,12,06,04,19,7.90
2020,12,06,04,20,7.90
2020,12,06,04,21,7.80
2020,12,06,04,22,7.80
2020,12,06,04,23,7.80
2020,12,06,04,24,7.80
2020,12,06,04,25,7.80
2020,12,06,04,26,7.80
2020,12,06,04,27,7.80
2020,12,06,04,28,7.80
2020,12,06,04,29,7.80
2020,12,06,04,30,7.80
2020,12,06,04,31,7.80
2020,12,06,04,32,7.80
2020,12,06,04,33,7.80
2020,12,06,04,34,7.80
2020,12,06,04,35,7.70
2020,12,06,04,36,7.70
2020,12,06,04,37,7.70
2020,12,06,04,38,7.70
2020,12,06,04,39,7.70
2020,12,06,04,40,7.70
2020,12,06,04,41,7.70
2020,12,06,04,42,7.70
2020,12,06,04,43,7.70
2020,12,06,04,44,7.60
2020,12,06,04,45,7.60
2020,12,06,04,46,7.60
2020,12,06,04,47,7.60
2020,12,06,04,48,7.60
2020,12,06,04,49,7.60
2020,12,06,04,50,7.60
2020,12,06,04,51,7.60
2020,12,06,04,52,7.60
2020,12,06,04,53,7.60
2020,12,06,04,54,7.50
2020,12,06,04,55,7.50
2020,12,06,04,56,7.50
2020,12,06,04,57,7.50
2020,12,06,04,58,7.50
2020,12,06,04,59,7.50
2020,12,06,05,00,7.50
2020,12,06,05,01,7.50
2020,12,06,05,02,7.50
2020,12,06,05,03,7.60
2020,12,06,05,04,7.60
2020,12,06,05,05,7.60
2020,12,06,05,06,7.60
2020,12,06,05,07,7.50
2020,12,06,05,08,7.50
2020,12,06,05,09,7.50
2020,12,06,05,10,7.50
2020,12,06,05,11,7.40
2020,12,06,05,12,7.40
2020,12,06,05,13,7.40
2020,12,06,05,14,7.40
2020,12,06,05,15,7.40
2020,12,06,05,16,7.40
2020,12,06,05,17,7.40
2020,12,06,05,18,7.40
2020,12,06,05,19,7.40
2020,12,06,05,20,7.40
2020,12,06,05,21,7.40
2020,12,06,05,22,7.40
2020,12,06,05,23,7.50
2020,12,06,05,24,7.50
2020,12,06,05,25,7.50
2020,12,06,05,26,7.50
2020,12,06,05,27,7.50
2020,12,06,05,28,7.50
2020,12,06,05,29,7.60
2020,12,06,05,30,7.60
2020,12,06,05,31,7.60
2020,12,06,05,32,7.60
2020,12,06,05,33,7.60
2020,12,06,05,34,7.60
2020,12,06,05,35,7.60
2020,12,06,05,36,7.60
2020,12,06,05,37,7.70
2020,12,06,05,38,7.70
2020,12,06,05,39,7.70
2020,12,06,05,40,7.80
2020,12,06,05,41,7.80
2020,12,06,05,42,7.80
2020,12,06,05,43,7.80
2020,12,06,05,44,7.80
2020,12,06,05,45,7.80
2020,12,06,05,46,7.80
2020,12,06,05,47,7.80
2020,12,06,05,48,7.80
2020,12,06,05,49,7.80
2020,12,06,05,50,7.80
2020,12,06,05,51,7.80
2020,12,06,05,52,7.80
2020,12,06,05,53,7.80
2020,12,06,05,54,7.80
2020,12,06,05,55,7.80
2020,12,06,05,56,7.80
2020,12,06,05,57,7.80
2020,12,06,05,58,7.80
2020,12,06,05,59,7.80
2020,12,06,06,00,7.80
2020,12,06,06,01,7.80
2020,12,06,06,02,7.80
2020,12,06,06,03,7.80
2020,12,06,06,04,7.80
2020,12,06,06,05,7.80
2020,12,06,06,06,7.80
2020,12,06,06,07,7.80
2020,12,06,06,08,7.80
2020,12,06,06,09,7.90
2020,12,06,06,10,7.90
2020,12,06,06,11,7.90
2020,12,06,06,12,7.90
2020,12,06,06,13,7.90
2020,12,06,06,14,8.00
2020,12,06,06,15,8.00
2020,12,06,06,16,8.00
2020,12,06,06,17,8.00
2020,12,06,06,18,8.10
2020,12,06,06,19,8.10
2020,12,06,06,20,8.10
2020,12,06,06,21,8.10
2020,12,06,06,22,8.10
2020,12,06,06,23,8.20
2020,12,06,06,24,8.20
2020,12,06,06,25,8.20
2020,12,06,06,26,8.20
2020,12,06,06,27,8.20
2020,12,06,06,28,8.20
2020,12,06,06,29,8.20
2020,12,06,06,30,8.20
2020,12,06,06,31,8.20
2020,12,06,06,32,8.20
2020,12,06,06,33,8.20
2020,12,06,06,34,8.10
2020,12,06,06,35,8.10
2020,12,06,06,36,8.10
2020,12,06,06,37,8.10
2020,12,06,06,38,8.10
2020,12,06,06,39,8.10
2020,12,06,06,40,8.00
2020,12,06,06,41,8.00
2020,12,06,06,42,8.10
2020,12,06,06,43,8.10
2020,12,06,06,44,8.10
2020,12,06,06,45,8.20
2020,12,06,06,46,8.30
2020,12,06,06,47,8.40
2020,12,06,06,48,8.40
2020,12,06,06,49,8.50
2020,12,06,06,50,8.60
2020,12,06,06,51,8.60
2020,12,06,06,52,8.70
2020,12,06,06,53,8.70
2020,12,06,06,54,8.70
2020,12,06,06,55,8.70
2020,12,06,06,56,8.80
2020,12,06,06,57,8.80
2020,12,06,06,58,8.80
2020,12,06,06,59,8.80
2020,12,06,07,00,8.80
2020,12,06,07,01,8.80
2020,12,06,07,02,8.80
2020,12,06,07,03,8.80
2020,12,06,07,04,8.80
2020,12,06,07,05,8.80
2020,12,06,07,06,8.80
2020,12,06,07,07,8.80
2020,12,06,07,08,8.80
2020,12,06,07,09,8.80
2020,12,06,07,10,8.80
2020,12,06,07,11,8.80
2020,12,06,07,12,8.80
2020,12,06,07,13,8.80
2020,12,06,07,14,8.80
2020,12,06,07,15,8.80
2020,12,06,07,16,8.80
2020,12,06,07,17,8.80
2020,12,06,07,18,8.70
2020,12,06,07,19,8.70
2020,12,06,07,20,8.70
2020,12,06,07,21,8.70
2020,12,06,07,22,8.70
2020,12,06,07,23,8.60
2020,12,06,07,24,8.60
2020,12,06,07,25,8.60
2020,12,06,07,26,8.60
2020,12,06,07,27,8.60
2020,12,06,07,28,8.60
2020,12,06,07,29,8.60
2020,12,06,07,30,8.50
2020,12,06,07,31,8.50
2020,12,06,07,32,8.50
2020,12,06,07,33,8.50
2020,12,06,07,34,8.40
2020,12,06,07,35,8.40
2020,12,06,07,36,8.40
2020,12,06,07,37,8.40
2020,12,06,07,38,8.40
2020,12,06,07,39,8.40
2020,12,06,07,40,8.40
2020,12,06,07,41,8.40
2020,12,06,07,42,8.40
2020,12,06,07,43,8.40
2020,12,06,07,44,8.40
2020,12,06,07,45,8.40
2020,12,06,07,46,8.40
2020,12,06,07,47,8.40
2020,12,06,07,48,8.40
2020,12,06,07,49,8.40
2020,12,06,07,50,8.40
2020,12,06,07,51,8.50
2020,12,06,07,52,8.50
2020,12,06,07,53,8.50
2020,12,06,07,54,8.60
2020,12,06,07,55,8.60
2020,12,06,07,56,8.60
2020,12,06,07,57,8.60
2020,12,06,07,58,8.60
2020,12,06,07,59,8.60
2020,12,06,08,00,8.70
2020,12,06,08,01,8.70
2020,12,06,08,02,8.70
2020,12,06,08,03,8.70
2020,12,06,08,04,8.70
2020,12,06,08,05,8.80
2020,12,06,08,06,8.80
2020,12,06,08,07,8.80
2020,12,06,08,08,8.80
2020,12,06,08,09,8.80
2020,12,06,08,10,8.80
2020,12,06,08,11,8.80
2020,12,06,08,12,8.80
2020,12,06,08,13,8.80
2020,12,06,08,14,8.80
2020,12,06,08,15,8.80
2020,12,06,08,16,8.80
2020,12,06,08,17,8.70
2020,12,06,08,18,8.70
2020,12,06,08,19,8.70
2020,12,06,08,20,8.70
2020,12,06,08,21,8.70
2020,12,06,08,22,8.70
2020,12,06,08,23,8.70
2020,12,06,08,24,8.70
2020,12,06,08,25,8.70
2020,12,06,08,26,8.70
2020,12,06,08,27,8.70
2020,12,06,08,28,8.70
2020,12,06,08,29,8.70
2020,12,06,08,30,8.70
2020,12,06,08,31,8.70
2020,12,06,08,32,8.70
2020,12,06,08,33,8.70
2020,12,06,08,34,8.70
2020,12,06,08,35,8.70
2020,12,06,08,36,8.70
2020,12,06,08,37,8.70
2020,12,06,08,38,8.70
2020,12,06,08,39,8.70
2020,12,06,08,40,8.70
2020,12,06,08,41,8.70
2020,12,06,08,42,8.70
2020,12,06,08,43,8.70
2020,12,06,08,44,8.70
2020,12,06,08,45,8.70
2020,12,06,08,46,8.70
2020,12,06,08,47,8.70
2020,12,06,08,48,8.70
2020,12,06,08,49,8.70
2020,12,06,08,50,8.70
2020,12,06,08,51,8.70
2020,12,06,08,52,8.70
2020,12,06,08,53,8.70
2020,12,06,08,54,8.70
2020,12,06,08,55,8.70
2020,12,06,08,56,8.70
2020,12,06,08,57,8.70
2020,12,06,08,58,8.70
2020,12,06,08,59,8.70
2020,12,06,09,00,8.70
2020,12,06,09,01,8.70
2020,12,06,09,02,8.70
2020,12,06,09,03,8.70
2020,12,06,09,04,8.70
2020,12,06,09,05,8.70
2020,12,06,09,06,8.70
2020,12,06,09,07,8.70
2020,12,06,09,08,8.70
2020,12,06,09,09,8.70
2020,12,06,09,10,8.70
2020,12,06,09,11,8.70
2020,12,06,09,12,8.70
2020,12,06,09,13,8.70
2020,12,06,09,14,8.70
2020,12,06,09,15,8.80
2020,12,06,09,16,8.80
2020,12,06,09,17,8.80
2020,12,06,09,18,8.80
2020,12,06,09,19,8.80
2020,12,06,09,20,8.80
2020,12,06,09,21,8.80
2020,12,06,09,22,8.80
2020,12,06,09,23,8.90
2020,12,06,09,24,8.90
2020,12,06,09,25,8.90
2020,12,06,09,26,8.90
2020,12,06,09,27,8.90
2020,12,06,09,28,8.90
2020,12,06,09,29,8.90
2020,12,06,09,30,9.00
2020,12,06,09,31,9.00
2020,12,06,09,32,9.00
2020,12,06,09,33,9.00
2020,12,06,09,34,9.10
2020,12,06,09,35,9.10
2020,12,06,09,36,9.10
2020,12,06,09,37,9.10
2020,12,06,09,38,9.10
2020,12,06,09,39,9.10
2020,12,06,09,40,9.10
2020,12,06,09,41,9.10
2020,12,06,09,42,9.20
2020,12,06,09,43,9.20
2020,12,06,09,44,9.20
2020,12,06,09,45,9.20
2020,12,06,09,46,9.20
2020,12,06,09,47,9.20
2020,12,06,09,48,9.20
2020,12,06,09,49,9.20
2020,12,06,09,50,9.30
2020,12,06,09,51,9.30
2020,12,06,09,52,9.30
2020,12,06,09,53,9.30
2020,12,06,09,54,9.30
2020,12,06,09,55,9.30
2020,12,06,09,56,9.30
2020,12,06,09,57,9.30
2020,12,06,09,58,9.40
2020,12,06,09,59,9.40
2020,12,06,10,00,9.40
2020,12,06,10,01,9.40
2020,12,06,10,02,9.40
2020,12,06,10,03,9.40
2020,12,06,10,04,9.40
2020,12,06,10,05,9.40
2020,12,06,10,06,9.40
2020,12,06,10,07,9.40
2020,12,06,10,08,9.40
2020,12,06,10,09,9.50
2020,12,06,10,10,9.50
2020,12,06,10,11,9.50
2020,12,06,10,12,9.50
2020,12,06,10,13,9.50
2020,12,06,10,14,9.50
2020,12,06,10,15,9.60
2020,12,06,10,16,9.60
2020,12,06,10,17,9.60
2020,12,06,10,18,9.60
2020,12,06,10,19,9.60
2020,12,06,10,20,9.60
2020,12,06,10,21,9.60
2020,12,06,10,22,9.60
2020,12,06,10,23,9.60
2020,12,06,10,24,9.60
2020,12,06,10,25,9.60
2020,12,06,10,26,9.60
2020,12,06,10,27,9.60
2020,12,06,10,28,9.60
2020,12,06,10,29,9.60
2020,12,06,10,30,9.60
2020,12,06,10,31,9.60
2020,12,06,10,32,9.60
2020,12,06,10,33,9.60
2020,12,06,10,34,9.60
2020,12,06,10,35,9.60
2020,12,06,10,36,9.50
2020,12,06,10,37,9.50
2020,12,06,10,38,9.50
2020,12,06,10,39,9.50
2020,12,06,10,40,9.40
2020,12,06,10,41,9.40
2020,12,06,10,42,9.40
2020,12,06,10,43,9.40
2020,12,06,10,44,9.40
2020,12,06,10,45,9.40
2020,12,06,10,46,9.40
2020,12,06,10,47,9.40
2020,12,06,10,48,9.40
2020,12,06,10,49,9.40
2020,12,06,10,50,9.40
2020,12,06,10,51,9.30
2020,12,06,10,52,9.30
2020,12,06,10,53,9.30
2020,12,06,10,54,9.30
2020,12,06,10,55,9.40
2020,12,06,10,56,9.40
2020,12,06,10,57,9.40
2020,12,06,10,58,9.40
2020,12,06,10,59,9.40
2020,12,06,11,00,9.40
2020,12,06,11,01,9.40
2020,12,06,11,02,9.50
2020,12,06,11,03,9.50
2020,12,06,11,04,9.50
2020,12,06,11,05,9.60
2020,12,06,11,06,9.60
2020,12,06,11,07,9.60
2020,12,06,11,08,9.60
2020,12,06,11,09,9.60
2020,12,06,11,10,9.60
2020,12,06,11,11,9.60
2020,12,06,11,12,9.60
2020,12,06,11,13,9.60
2020,12,06,11,14,9.60
2020,12,06,11,15,9.60
2020,12,06,11,16,9.60
2020,12,06,11,17,9.60
2020,12,06,11,18,9.60
2020,12,06,11,19,9.60
2020,12,06,11,20,9.60
2020,12,06,11,21,9.60
2020,12,06,11,22,9.60
2020,12,06,11,23,9.60
2020,12,06,11,24,9.60
2020,12,06,11,25,9.60
2020,12,06,11,26,9.60
2020,12,06,11,27,9.60
2020,12,06,11,28,9.60
2020,12,06,11,29,9.60
2020,12,06,11,30,9.60
2020,12,06,11,31,9.60
2020,12,06,11,32,9.60
2020,12,06,11,33,9.60
2020,12,06,11,34,9.60
2020,12,06,11,35,9.60
2020,12,06,11,36,9.60
2020,12,06,11,37,9.60
2020,12,06,11,38,9.60
2020,12,06,11,39,9.60
2020,12,06,11,40,9.60
2020,12,06,11,41,9.60
2020,12,06,11,42,9.60
2020,12,06,11,43,9.60
2020,12,06,11,44,9.60
2020,12,06,11,45,9.60
2020,12,06,11,46,9.60
2020,12,06,11,47,9.60
2020,12,06,11,48,9.60
2020,12,06,11,49,9.60
2020,12,06,11,50,9.60
2020,12,06,11,51,9.60
2020,12,06,11,52,9.60
2020,12,06,11,53,9.60
2020,12,06,11,54,9.60
2020,12,06,11,55,9.60
2020,12,06,11,56,9.60
2020,12,06,11,57,9.60
2020,12,06,11,58,9.60
2020,12,06,11,59,9.60
2020,12,06,12,00,9.60
2020,12,06,12,01,9.60
2020,12,06,12,02,9.60
2020,12,06,12,03,9.60
2020,12,06,12,04,9.70
2020,12,06,12,05,9.70
2020,12,06,12,06,9.70
2020,12,06,12,07,9.70
2020,12,06,12,08,9.70
2020,12,06,12,09,9.70
2020,12,06,12,10,9.70
2020,12,06,12,11,9.80
2020,12,06,12,12,9.80
2020,12,06,12,13,9.80
2020,12,06,12,14,9.90
2020,12,06,12,15,9.90
2020,12,06,12,16,10.00
2020,12,06,12,17,10.00
2020,12,06,12,18,10.10
2020,12,06,12,19,10.10
2020,12,06,12,20,10.10
2020,12,06,12,21,10.20
2020,12,06,12,22,10.30
2020,12,06,12,23,10.30
2020,12,06,12,24,10.30
2020,12,06,12,25,10.30
2020,12,06,12,26,10.30
2020,12,06,12,27,10.30
2020,12,06,12,28,10.30
2020,12,06,12,29,10.40
2020,12,06,12,30,10.40
2020,12,06,12,31,10.40
2020,12,06,12,32,10.50
2020,12,06,12,33,10.60
2020,12,06,12,34,10.60
2020,12,06,12,35,10.70
2020,12,06,12,36,10.70
2020,12,06,12,37,10.70
2020,12,06,12,38,10.80
2020,12,06,12,39,10.80
2020,12,06,12,40,10.80
2020,12,06,12,41,10.80
2020,12,06,12,42,10.80
2020,12,06,12,43,10.80
2020,12,06,12,44,10.80
2020,12,06,12,45,10.80
2020,12,06,12,46,10.80
2020,12,06,12,47,10.80
2020,12,06,12,48,10.90
2020,12,06,12,49,10.90
2020,12,06,12,50,10.90
2020,12,06,12,51,11.00
2020,12,06,12,52,11.00
2020,12,06,12,53,11.00
2020,12,06,12,54,11.10
2020,12,06,12,55,11.10
2020,12,06,12,56,11.10
2020,12,06,12,57,11.10
2020,12,06,12,58,11.10
2020,12,06,12,59,11.10
2020,12,06,13,00,11.10
2020,12,06,13,01,11.10
2020,12,06,13,02,11.10
2020,12,06,13,03,11.20
2020,12,06,13,04,11.20
2020,12,06,13,05,11.20
2020,12,06,13,06,11.20
2020,12,06,13,07,11.10
2020,12,06,13,08,11.10
2020,12,06,13,09,11.10
2020,12,06,13,10,11.10
2020,12,06,13,11,11.10
2020,12,06,13,12,11.10
2020,12,06,13,13,11.10
2020,12,06,13,14,11.10
2020,12,06,13,15,11.10
2020,12,06,13,16,11.10
2020,12,06,13,17,11.00
2020,12,06,13,18,11.00
2020,12,06,13,19,11.00
2020,12,06,13,20,11.00
2020,12,06,13,21,11.00
2020,12,06,13,22,11.00
2020,12,06,13,23,11.00
2020,12,06,13,24,10.90
2020,12,06,13,25,10.90
2020,12,06,13,26,10.90
2020,12,06,13,27,10.90
2020,12,06,13,28,10.90
2020,12,06,13,29,10.90
2020,12,06,13,30,10.90
2020,12,06,13,31,10.90
2020,12,06,13,32,10.80
2020,12,06,13,33,10.80
2020,12,06,13,34,10.70
2020,12,06,13,35,10.70
2020,12,06,13,36,10.70
2020,12,06,13,37,10.70
2020,12,06,13,38,10.70
2020,12,06,13,39,10.60
2020,12,06,13,40,10.60
2020,12,06,13,41,10.60
2020,12,06,13,42,10.50
2020,12,06,13,43,10.50
2020,12,06,13,44,10.50
2020,12,06,13,45,10.40
2020,12,06,13,46,10.40
2020,12,06,13,47,10.40
2020,12,06,13,48,10.40
2020,12,06,13,49,10.40
2020,12,06,13,50,10.40
2020,12,06,13,51,10.40
2020,12,06,13,52,10.40
2020,12,06,13,53,10.40
2020,12,06,13,54,10.40
2020,12,06,13,55,10.40
2020,12,06,13,56,10.40
2020,12,06,13,57,10.40
2020,12,06,13,58,10.40
2020,12,06,13,59,10.40
2020,12,06,14,00,10.40
2020,12,06,14,01,10.50
2020,12,06,14,02,10.50
2020,12,06,14,03,10.50
2020,12,06,14,04,10.50
2020,12,06,14,05,10.60
2020,12,06,14,06,10.60
2020,12,06,14,07,10.60
2020,12,06,14,08,10.60
2020,12,06,14,09,10.60
2020,12,06,14,10,10.60
2020,12,06,14,11,10.60
2020,12,06,14,12,10.70
2020,12,06,14,13,10.70
2020,12,06,14,14,10.70
2020,12,06,14,15,10.70
2020,12,06,14,16,10.70
2020,12,06,14,17,10.70
2020,12,06,14,18,10.70
2020,12,06,14,19,10.70
2020,12,06,14,20,10.70
2020,12,06,14,21,10.70
2020,12,06,14,22,10.70
2020,12,06,14,23,10.70
2020,12,06,14,24,10.70
2020,12,06,14,25,10.70
2020,12,06,14,26,10.70
2020,12,06,14,27,10.70
2020,12,06,14,28,10.70
2020,12,06,14,29,10.70
2020,12,06,14,30,10.70
2020,12,06,14,31,10.80
2020,12,06,14,32,10.80
2020,12,06,14,33,10.80
2020,12,06,14,34,10.80
2020,12,06,14,35,10.80
2020,12,06,14,36,10.80
2020,12,06,14,37,10.80
2020,12,06,14,38,10.80
2020,12,06,14,39,10.80
2020,12,06,14,40,10.80
2020,12,06,14,41,10.80
2020,12,06,14,42,10.80
2020,12,06,14,43,10.80
2020,12,06,14,44,10.80
2020,12,06,14,45,10.80
2020,12,06,14,46,10.80
2020,12,06,14,47,10.90
2020,12,06,14,48,10.90
2020,12,06,14,49,10.90
2020,12,06,14,50,10.90
2020,12,06,14,51,10.90
2020,12,06,14,52,10.90
2020,12,06,14,53,10.90
2020,12,06,14,54,10.90
2020,12,06,14,55,10.90
2020,12,06,14,56,10.90
2020,12,06,14,57,11.00
2020,12,06,14,58,11.00
2020,12,06,14,59,11.00
2020,12,06,15,00,11.00
2020,12,06,15,01,11.10
2020,12,06,15,02,11.10
2020,12,06,15,03,11.10
2020,12,06,15,04,11.10
2020,12,06,15,05,11.10
2020,12,06,15,06,11.10
2020,12,06,15,07,11.10
2020,12,06,15,08,11.10
2020,12,06,15,09,11.10
2020,12,06,15,10,11.10
2020,12,06,15,11,11.10
2020,12,06,15,12,11.10
2020,12,06,15,13,11.10
2020,12,06,15,14,11.10
2020,12,06,15,15,11.10
2020,12,06,15,16,11.10
2020,12,06,15,17,11.10
2020,12,06,15,18,11.20
2020,12,06,15,19,11.20
2020,12,06,15,20,11.20
2020,12,06,15,21,11.20
2020,12,06,15,22,11.20
2020,12,06,15,23,11.20
2020,12,06,15,24,11.20
2020,12,06,15,25,11.20
2020,12,06,15,26,11.20
2020,12,06,15,27,11.20
2020,12,06,15,28,11.10
2020,12,06,15,29,11.10
2020,12,06,15,30,11.10
2020,12,06,15,31,11.10
2020,12,06,15,32,11.10
2020,12,06,15,33,11.10
2020,12,06,15,34,11.10
2020,12,06,15,35,11.10
2020,12,06,15,36,11.10
2020,12,06,15,37,11.10
2020,12,06,15,38,11.10
2020,12,06,15,39,11.10
2020,12,06,15,40,11.10
2020,12,06,15,41,11.10
2020,12,06,15,42,11.10
2020,12,06,15,43,11.10
2020,12,06,15,44,11.00
2020,12,06,15,45,11.00
2020,12,06,15,46,11.00
2020,12,06,15,47,11.00
2020,12,06,15,48,11.00
2020,12,06,15,49,11.00
2020,12,06,15,50,11.00
2020,12,06,15,51,10.90
2020,12,06,15,52,10.90
2020,12,06,15,53,10.90
2020,12,06,15,54,10.90
2020,12,06,15,55,10.90
2020,12,06,15,56,10.90
2020,12,06,15,57,10.90
2020,12,06,15,58,10.90
2020,12,06,15,59,10.90
2020,12,06,16,00,10.90
2020,12,06,16,01,10.90
2020,12,06,16,02,10.90
2020,12,06,16,03,10.80
2020,12,06,16,04,10.80
2020,12,06,16,05,10.80
2020,12,06,16,06,10.80
2020,12,06,16,07,10.80
2020,12,06,16,08,10.80
2020,12,06,16,09,10.80
2020,12,06,16,10,10.80
2020,12,06,16,11,10.80
2020,12,06,16,12,10.80
2020,12,06,16,13,10.80
2020,12,06,16,14,10.80
2020,12,06,16,15,10.80
2020,12,06,16,16,10.70
2020,12,06,16,17,10.70
2020,12,06,16,18,10.70
2020,12,06,16,19,10.70
2020,12,06,16,20,10.70
2020,12,06,16,21,10.70
2020,12,06,16,22,10.70
2020,12,06,16,23,10.70
2020,12,06,16,24,10.70
2020,12,06,16,25,10.70
2020,12,06,16,26,10.70
2020,12,06,16,27,10.70
2020,12,06,16,28,10.70
2020,12,06,16,29,10.70
2020,12,06,16,30,10.70
2020,12,06,16,31,10.80
2020,12,06,16,32,10.80
2020,12,06,16,33,10.70
2020,12,06,16,34,10.80
2020,12,06,16,35,10.80
2020,12,06,16,36,10.80
2020,12,06,16,37,10.70
2020,12,06,16,38,10.70
2020,12,06,16,39,10.70
2020,12,06,16,40,10.70
2020,12,06,16,41,10.70
2020,12,06,16,42,10.70
2020,12,06,16,43,10.70
2020,12,06,16,44,10.70
2020,12,06,16,45,10.70
2020,12,06,16,46,10.70
2020,12,06,16,47,10.70
2020,12,06,16,48,10.70
2020,12,06,16,49,10.70
2020,12,06,16,50,10.70
2020,12,06,16,51,10.70
2020,12,06,16,52,10.60
2020,12,06,16,53,10.60
2020,12,06,16,54,10.60
2020,12,06,16,55,10.60
2020,12,06,16,56,10.60
2020,12,06,16,57,10.60
2020,12,06,16,58,10.60
2020,12,06,16,59,10.70
2020,12,06,17,00,10.70
2020,12,06,17,01,10.70
2020,12,06,17,02,10.70
2020,12,06,17,03,10.70
2020,12,06,17,04,10.70
2020,12,06,17,05,10.80
2020,12,06,17,06,10.80
2020,12,06,17,07,10.80
2020,12,06,17,08,10.80
2020,12,06,17,09,10.80
2020,12,06,17,10,10.80
2020,12,06,17,11,10.80
2020,12,06,17,12,10.80
2020,12,06,17,13,10.80
2020,12,06,17,14,10.80
2020,12,06,17,15,10.80
2020,12,06,17,16,10.80
2020,12,06,17,17,10.80
2020,12,06,17,18,10.80
2020,12,06,17,19,10.80
2020,12,06,17,20,10.80
2020,12,06,17,21,10.80
2020,12,06,17,22,10.80
2020,12,06,17,23,10.80
2020,12,06,17,24,10.80
2020,12,06,17,25,10.80
2020,12,06,17,26,10.80
2020,12,06,17,27,10.70
2020,12,06,17,28,10.70
2020,12,06,17,29,10.60
2020,12,06,17,30,10.60
2020,12,06,17,31,10.60
2020,12,06,17,32,10.50
2020,12,06,17,33,10.40
2020,12,06,17,34,10.40
2020,12,06,17,35,10.40
2020,12,06,17,36,10.40
2020,12,06,17,37,10.30
2020,12,06,17,38,10.30
2020,12,06,17,39,10.30
2020,12,06,17,40,10.30
2020,12,06,17,41,10.30
2020,12,06,17,42,10.30
2020,12,06,17,43,10.30
2020,12,06,17,44,10.30
2020,12,06,17,45,10.30
2020,12,06,17,46,10.30
2020,12,06,17,47,10.20
2020,12,06,17,48,10.20
2020,12,06,17,49,10.20
2020,12,06,17,50,10.20
2020,12,06,17,51,10.20